[[{"header":{"parameterUnit":"m.s-1","parameterCategory":1,"la1":30.2991,"la2":30.254,"lo1":-89.0895,"lo2":-89.0444,"dy":0.0017,"dx":0.0017,"nx":28,"ny":28,"refTime":"2024-06-28T21:00:00:Z","depth":0,"parameterNumber":2,"parameterNumberName":"U-component_of_WINDS"},"data":[0,0,0,0,0,0,0,0,0,0,0,0,0,0,0,0,0,0,0,0,0,0,0,0,0,0,0,0,0,0,0,0,0,0,0,0,0,0,0,0,0,0,0,0,0,0,0,0,0,0,0,0,0,0,0,0,0,0,1.7063,1.7064,0,1.7126,1.7126,1.7127,1.7144,1.7143,1.7143,1.7142,1.7207,1.7209,1.7211,0,0,0,0,0,0,0,0,0,0,0,0,0,1.6959,1.6961,1.7063,1.7064,1.7065,1.7125,1.7126,1.7127,1.7144,1.7143,1.7143,1.7142,1.7206,1.7209,1.7211,0,0,0,0,0,0,0,0,0,0,0,0,0,1.7011,1.6962,1.7063,1.708,1.7083,1.7125,1.7126,1.7127,1.7144,1.7143,1.7143,1.7142,1.7205,1.7208,1.7211,1.7242,0,0,1.7221,1.7222,0,0,0,0,0,0,0,0,1.7008,1.7015,1.7077,1.7079,1.7082,1.7126,1.7113,1.7166,1.7144,1.7121,1.7142,1.7142,1.7181,1.7186,1.7199,1.7245,1.7247,1.7221,1.7223,1.7224,1.7225,0,0,0,0,0,0,0,1.7005,1.7013,1.7088,1.7078,1.7081,1.7085,1.7092,1.7123,1.7153,1.7123,1.7124,1.7131,1.7182,1.7195,1.72,1.7248,1.7221,1.7224,1.7226,1.7227,1.7322,1.7322,0,0,0,0,0,0,1.6998,1.7009,1.7086,1.709,1.7043,1.7087,1.7095,1.7113,1.7153,1.7158,1.7131,1.7131,1.719,1.7197,1.7202,1.724,1.7224,1.7227,1.7229,1.7321,1.7322,1.7323,0,0,0,0,0,0,1.6996,1.7005,1.7084,1.705,1.706,1.709,1.7109,1.7114,1.7128,1.7159,1.7165,1.714,1.719,1.7198,1.7232,1.7242,1.7229,1.7231,1.732,1.7321,1.7322,1.7315,0,0,0,0,0,0,1.6993,1.7004,1.7016,1.705,1.7062,1.7111,1.711,1.7116,1.7133,1.7134,1.7169,1.7174,1.719,1.7227,1.7235,1.7246,1.7234,1.732,1.7321,1.7322,1.7314,1.7316,1.7317,0,0,0,0,0,1.6989,1.7011,1.7016,1.7025,1.7077,1.7112,1.7119,1.7137,1.7134,1.7146,1.7166,1.7173,1.724,1.723,1.7239,1.7252,1.7319,1.732,1.7322,1.7314,1.7315,1.7317,0,0,0,0,0,0,1.6978,1.7016,1.7022,1.7056,1.7081,1.7115,1.713,1.7138,1.7164,1.7164,1.7186,1.7193,1.7225,1.7242,1.723,1.7283,1.728,1.7283,1.727,1.7272,1.7273,1.7268,1.7236,0,0,0,0,0,1.6979,1.7004,1.7036,1.7063,1.7075,1.7101,1.7116,1.7128,1.7155,1.7165,1.7188,1.7213,1.724,1.7257,1.7284,1.7317,1.7325,1.733,1.7332,1.7332,1.7335,1.7353,1.7356,1.7328,1.7328,1.7328,0,0,1.6982,1.7006,1.7021,1.7062,1.7082,1.7107,1.7109,1.7136,1.7155,1.7169,1.7202,1.7219,1.7249,1.7283,1.7299,1.7298,1.7344,1.7334,1.7335,1.7337,1.7355,1.7358,1.736,1.7329,1.7328,1.7328,0,0,1.7001,1.7022,1.7046,1.7066,1.7097,1.7114,1.712,1.7153,1.7165,1.7198,1.7209,1.7232,1.7278,1.7298,1.7315,1.7341,1.7348,1.7349,1.7354,1.7372,1.7374,1.7376,1.7385,1.7388,1.7351,1.7351,1.7351,0,1.7001,1.7039,1.7058,1.7084,1.7101,1.7115,1.714,1.7159,1.7197,1.7208,1.7207,1.7264,1.7286,1.7324,1.733,1.7343,1.735,1.7345,1.7372,1.7375,1.7377,1.7385,1.7389,1.7351,1.7351,1.7351,1.7351,0,1.7037,1.7063,1.7079,1.7115,1.7134,1.716,1.7182,1.72,1.721,1.7227,1.726,1.7286,1.7318,1.7328,1.7338,1.7367,1.7366,1.7368,1.7365,1.7379,1.7387,1.7391,1.7351,1.7351,1.7351,1.7351,0,0,1.705,1.7095,1.7101,1.7117,1.7152,1.7172,1.7198,1.7229,1.7243,1.7269,1.729,1.7329,1.7331,1.735,1.7363,1.7378,1.7396,1.7379,1.738,1.7381,1.7429,1.7426,1.743,1.7402,1.7402,1.7403,1.7426,0,1.7072,1.7118,1.7136,1.7173,1.7198,1.7211,1.7234,1.7258,1.7274,1.7297,1.7316,1.7342,1.7343,1.7355,1.7371,1.7391,1.7406,1.7389,1.7422,1.7423,1.7413,1.7434,1.7432,1.7452,1.743,1.743,1.7431,0,1.7104,1.7129,1.7169,1.72,1.7211,1.7231,1.726,1.7282,1.7309,1.732,1.7341,1.7353,1.738,1.7376,1.7414,1.7402,1.7416,1.7428,1.7429,1.7433,1.7427,1.7437,1.746,1.7462,1.7436,1.7436,1.7435,0,1.7108,1.7152,1.7182,1.7195,1.7233,1.7246,1.7262,1.7289,1.7306,1.7332,1.7343,1.7372,1.7387,1.7409,1.7428,1.7424,1.7464,1.7462,1.7474,1.7473,1.7481,1.748,1.7506,1.7492,1.7492,1.7492,1.7492,0,1.713,1.7154,1.7184,1.7202,1.7229,1.7249,1.7275,1.7292,1.7316,1.7338,1.7352,1.7372,1.7396,1.742,1.7435,1.7464,1.7471,1.748,1.7484,1.7479,1.7477,1.7488,1.7487,1.7493,1.7492,1.7492,1.7492,0,1.7139,1.716,1.7193,1.7226,1.7234,1.7253,1.7281,1.7299,1.7316,1.7343,1.7351,1.7377,1.7405,1.7427,1.7464,1.7474,1.7504,1.7508,1.7495,1.7496,1.7507,1.7505,1.7539,1.7544,1.7528,1.7528,1.7528,0,1.7151,1.717,1.7204,1.722,1.7236,1.726,1.7278,1.7299,1.7316,1.7348,1.7362,1.7391,1.7415,1.7459,1.7482,1.751,1.7515,1.7525,1.7519,1.7513,1.7514,1.7512,1.7514,1.7525,1.7525,1.7525,1.7526,0,1.7171,1.718,1.7205,1.7233,1.7253,1.7276,1.7299,1.7311,1.7336,1.7355,1.7384,1.7402,1.7439,1.7468,1.7498,1.7515,1.7524,1.7527,1.7531,1.7526,1.7517,1.7521,1.7496,1.7526,1.7526,1.7526,1.7526,1.7526,1.7182,1.7198,1.7225,1.7252,1.7271,1.7293,1.7311,1.733,1.7354,1.7386,1.7397,1.7426,1.7453,1.7494,1.7511,1.7535,1.7535,1.7541,1.7543,1.7544,1.7543,1.7513,1.754,1.754,1.754,1.754,1.754,0,1.7201,1.7219,1.7243,1.7275,1.7296,1.7303,1.7329,1.7346,1.7372,1.7396,1.7419,1.7451,1.7479,1.7504,1.7533,1.7546,1.7551,1.7553,1.7552,1.7556,1.7541,1.7534,1.7549,1.7549,1.7549,1.7549,1.7549,1.7549,1.7214,1.7242,1.7255,1.7293,1.7311,1.734,1.7354,1.7374,1.7393,1.7428,1.7451,1.7467,1.7492,1.7522,1.7548,1.7554,1.7564,1.7564,1.7572,1.7558,1.7557,1.7556,1.7549,1.7567,1.7567,1.7585,1.7585,1.7585]},{"header":{"parameterUnit":"m.s-1","parameterCategory":1,"la1":30.2991,"la2":30.254,"lo1":-89.0895,"lo2":-89.0444,"dy":0.0017,"dx":0.0017,"nx":28,"ny":28,"refTime":"2024-06-28T21:00:00:Z","depth":0,"parameterNumber":3,"parameterNumberName":"V-component_of_WINDS"},"data":[0,0,0,0,0,0,0,0,0,0,0,0,0,0,0,0,0,0,0,0,0,0,0,0,0,0,0,0,0,0,0,0,0,0,0,0,0,0,0,0,0,0,0,0,0,0,0,0,0,0,0,0,0,0,0,0,0,0,3.4841,3.4841,0,3.4816,3.4816,3.4816,3.4799,3.4799,3.4799,3.4799,3.477,3.4769,3.4768,0,0,0,0,0,0,0,0,0,0,0,0,0,3.4871,3.4871,3.4841,3.4841,3.4841,3.4817,3.4816,3.4816,3.4799,3.4799,3.4799,3.4799,3.477,3.4769,3.4768,0,0,0,0,0,0,0,0,0,0,0,0,0,3.4853,3.4871,3.4841,3.483,3.4828,3.4817,3.4816,3.4816,3.4799,3.4799,3.4799,3.4799,3.477,3.4769,3.4768,3.4765,0,0,3.4765,3.4765,0,0,0,0,0,0,0,0,3.4854,3.4852,3.4832,3.483,3.4829,3.4811,3.4816,3.4799,3.48,3.481,3.4799,3.4799,3.4783,3.4781,3.4777,3.4764,3.4762,3.4765,3.4764,3.4764,3.4764,0,0,0,0,0,0,0,3.4856,3.4853,3.4831,3.4831,3.483,3.4825,3.4822,3.4813,3.4798,3.4809,3.4808,3.4806,3.4783,3.4778,3.4776,3.4762,3.4765,3.4764,3.4764,3.4763,3.4745,3.4745,0,0,0,0,0,0,3.4859,3.4854,3.4832,3.4831,3.4842,3.4824,3.4821,3.4817,3.4798,3.4795,3.4806,3.4805,3.478,3.4777,3.4775,3.477,3.4764,3.4763,3.4762,3.4744,3.4745,3.4745,0,0,0,0,0,0,3.486,3.4857,3.4833,3.4842,3.4839,3.4824,3.4819,3.4816,3.4812,3.4795,3.4792,3.4804,3.4779,3.4776,3.4768,3.4768,3.4763,3.4762,3.4744,3.4745,3.4745,3.4759,0,0,0,0,0,0,3.4861,3.4858,3.4857,3.4842,3.4838,3.4827,3.4819,3.4816,3.481,3.4809,3.4793,3.479,3.4779,3.477,3.4767,3.4767,3.4761,3.4744,3.4744,3.4745,3.4759,3.476,3.4761,0,0,0,0,0,3.4862,3.4861,3.4857,3.4854,3.4837,3.4828,3.4825,3.4814,3.4811,3.4809,3.4799,3.479,3.4769,3.4769,3.4766,3.4765,3.4744,3.4744,3.4745,3.4758,3.476,3.4761,0,0,0,0,0,0,3.4875,3.4859,3.4854,3.4849,3.484,3.4825,3.4823,3.4816,3.4807,3.4806,3.4791,3.4787,3.478,3.4772,3.4772,3.4761,3.4755,3.4755,3.4767,3.4768,3.4769,3.4771,3.476,0,0,0,0,0,3.4878,3.4872,3.4858,3.4855,3.485,3.4838,3.4833,3.4825,3.4815,3.481,3.4799,3.4788,3.4779,3.4773,3.4764,3.4758,3.4754,3.4756,3.4757,3.4758,3.4758,3.4754,3.4755,3.4746,3.4746,3.4746,0,0,3.4882,3.4873,3.487,3.4857,3.4849,3.4843,3.4834,3.4828,3.4823,3.4809,3.4801,3.4792,3.4779,3.4772,3.4768,3.4764,3.476,3.4759,3.476,3.4759,3.4754,3.4755,3.4756,3.4746,3.4746,3.4746,0,0,3.4887,3.488,3.4876,3.4869,3.4858,3.4849,3.4848,3.4835,3.4829,3.4821,3.481,3.4803,3.4788,3.4779,3.4773,3.4775,3.4767,3.4773,3.4778,3.4775,3.4775,3.4776,3.4776,3.4777,3.4772,3.4772,3.4772,0,3.4894,3.4885,3.4875,3.4869,3.4864,3.4853,3.4849,3.4842,3.4827,3.4823,3.482,3.4801,3.4791,3.4782,3.4783,3.4778,3.4776,3.4774,3.4776,3.4777,3.4777,3.4777,3.4778,3.4773,3.4773,3.4773,3.4773,0,3.4893,3.4888,3.4886,3.4874,3.4868,3.4863,3.4852,3.4847,3.484,3.4832,3.4823,3.4812,3.48,3.4797,3.479,3.4787,3.4785,3.4779,3.4773,3.4779,3.4779,3.4779,3.4774,3.4774,3.4774,3.4774,0,0,3.4905,3.4889,3.4888,3.4883,3.487,3.4864,3.4859,3.4849,3.4845,3.4835,3.483,3.4818,3.4813,3.4805,3.4797,3.4794,3.4796,3.4788,3.4788,3.479,3.4792,3.4796,3.4796,3.4791,3.4791,3.4791,3.4793,0,3.4908,3.4898,3.489,3.4883,3.4877,3.4867,3.4862,3.4853,3.4846,3.4839,3.4829,3.4821,3.4815,3.4811,3.4807,3.4797,3.4797,3.4797,3.4785,3.4785,3.4788,3.4796,3.48,3.4802,3.4793,3.4793,3.4793,0,3.4909,3.4902,3.4895,3.4884,3.4881,3.4877,3.4867,3.4861,3.485,3.4845,3.4837,3.4829,3.4822,3.4817,3.4807,3.4807,3.4802,3.4796,3.4796,3.4793,3.4789,3.4794,3.4802,3.4803,3.4793,3.4793,3.4793,0,3.4918,3.4906,3.4901,3.4897,3.4883,3.488,3.4874,3.4864,3.4858,3.4849,3.4846,3.4836,3.483,3.4822,3.481,3.4808,3.4801,3.4795,3.4795,3.4796,3.4793,3.4794,3.4801,3.4791,3.4791,3.4791,3.4791,0,3.4922,3.4918,3.4905,3.4901,3.4897,3.4886,3.4882,3.4874,3.4865,3.486,3.485,3.4845,3.4831,3.4823,3.4814,3.4807,3.4804,3.4799,3.4796,3.4799,3.48,3.4795,3.4794,3.4791,3.4791,3.4791,3.4791,0,3.493,3.4921,3.4915,3.4903,3.49,3.4897,3.4886,3.4882,3.4874,3.4867,3.4864,3.4852,3.4843,3.4831,3.4818,3.4812,3.4805,3.4802,3.4809,3.4807,3.4808,3.4808,3.4812,3.4811,3.4803,3.4803,3.4803,0,3.4933,3.493,3.4918,3.4914,3.4909,3.4902,3.4897,3.4887,3.4882,3.487,3.4867,3.4858,3.485,3.4836,3.4824,3.4814,3.481,3.4812,3.4808,3.4812,3.4809,3.481,3.4809,3.4813,3.4813,3.4813,3.4813,0,3.4938,3.4934,3.4928,3.492,3.4915,3.4908,3.49,3.4897,3.4885,3.488,3.4871,3.4865,3.4853,3.4843,3.4832,3.4824,3.4816,3.4815,3.4814,3.4817,3.4821,3.4818,3.4811,3.4815,3.4814,3.4814,3.4814,3.4814,3.4943,3.494,3.4932,3.4925,3.4919,3.4912,3.4908,3.49,3.4893,3.4883,3.4877,3.4869,3.4858,3.4842,3.4835,3.4828,3.4825,3.4824,3.4824,3.4823,3.4824,3.4823,3.4826,3.4826,3.4826,3.4826,3.4826,0,3.4948,3.4942,3.4936,3.4927,3.4921,3.4916,3.4908,3.4903,3.4897,3.4888,3.4881,3.4871,3.4862,3.4851,3.484,3.4837,3.4833,3.4834,3.4834,3.4832,3.4828,3.4829,3.4837,3.4837,3.4837,3.4837,3.4837,3.4837,3.495,3.4944,3.4939,3.4931,3.4925,3.4917,3.4913,3.4907,3.49,3.489,3.4883,3.4876,3.4866,3.4855,3.4847,3.4843,3.484,3.4842,3.4838,3.4834,3.4832,3.4831,3.4833,3.4842,3.4842,3.4843,3.4843,3.4843]}]]